Location: St. Louis
(38.6270°N, 90.1994°W)
Time: 21:17:50
(UTC-05:00)

ISS - Pass Details

Date: 19 April 2014
Orbit: 402 x 404 km, 51.6° (Epoch: 26 May)

Event Time Altitude Azimuth Distance (km) Brightness Sun altitude
Rises 20:50:55 0° 309° (NW) 2,373 2.3 -13.5°
Reaches altitude 10° 20:53:02 10° 309° (NW) 1,495 0.9 -13.8°
Maximum altitude 20:56:23 88° 32° (NNE) 415 -3.4 -14.4°
Enters shadow 20:57:48 32° 128° (SE) 730 -2.6 -14.7°
